Location: Grabownia
(50.1357°N, 18.5337°E)
Time: 02:08:54
(UTC+00:00)

Daily predictions for brighter satellites

Satellite Brightness Start Highest point End
(mag) Time Altitude Azimuth Time Altitude Azimuth Time Altitude Azimuth
CENTAUR R/B 4.3 00:04:48 10° NW 00:11:33 35° NNE 00:19:11 10° E
Resurs 1-4 Rocket 4.5 00:14:54 10° NNE 00:16:24 19° NNE 00:16:24 19° NNE
Cosmos 2360 Rocket 4.3 00:27:12 10° NNW 00:30:27 23° NNE 00:30:27 23° NNE
ADEOS II 4.3 00:34:32 10° NNE 00:36:32 22° NE 00:36:32 22° NE
Cosmos 1833 Rocket 4.5 00:58:07 26° N 00:58:07 26° N 01:00:40 10° NNE
Cosmos 2082 Rocket 3.8 01:00:46 31° NNE 01:00:46 31° NNE 01:03:40 10° NNE
Cosmos 2333 Rocket 4.4 00:55:35 10° NNW 01:00:04 22° NE 01:04:31 10° E
Cosmos 2219 Rocket 4.3 01:10:57 10° NNW 01:15:26 23° NE 01:19:55 10° E
USA 238 DEB 4.4 01:16:31 10° NW 01:23:31 55° NE 01:30:50 10° ESE
USA 238 4.4 01:16:38 10° NW 01:23:37 54° NE 01:30:56 10° ESE
ATLAS 3B R/B 4.4 01:22:13 16° NW 01:26:22 27° N 01:32:15 10° ENE
CZ-2D R/B 4.0 01:23:27 10° N 01:25:31 23° N 01:25:31 23° N
Cosmos 2344 4.3 01:36:41 36° SE 01:38:13 39° ESE 01:45:19 10° NE
ARIANE 5 R/B 3.5 01:39:11 10° NNE 01:43:01 44° ENE 01:43:01 44° ENE
USA 267 3.2 01:42:10 10° ENE 01:48:35 73° SE 01:48:35 73° SE
NOSS 3-2 (A) 4.0 01:45:05 10° NW 01:52:26 80° NE 02:00:52 10° SE
Resurs 1-4 Rocket 4.0 01:55:23 10° N 01:57:29 19° NNW 01:57:29 19° NNW
CENTAUR R/B 3.3 01:55:44 10° NW 02:03:36 71° NE 02:12:25 10° SE
Cosmos 2360 Rocket 4.1 02:10:50 10° NNW 02:22:23 - SSE 02:12:08 17° NNW
ADEOS II 3.4 02:14:28 10° N 02:17:30 27° NNW 02:17:30 27° NNW
IDEFIX/ARIANE 42P 3.0 02:15:37 10° N 02:19:42 49° NNW 02:19:42 49° NNW
Cosmos 2237 Rocket 4.3 02:18:30 10° NNW 02:23:09 25° NE 02:27:45 10° E
Cosmos 2333 4.4 02:18:11 10° NNW 02:23:59 74° ENE 02:29:47 10° SE
ALOS 4.2 02:20:03 10° NE 02:24:00 26° E 02:27:56 10° SSE
USA 234 3.3 02:18:12 10° SE 02:24:09 56° SSW 02:24:09 56° SSW
ISS -1.4 02:27:42 22° E 02:27:42 22° E 02:29:00 10° E
ADEOS Rocket 4.3 02:30:07 22° NW 02:30:07 22° NW 02:32:10 10° NNW
CZ-4C R/B 4.1 02:25:01 14° SSE 02:27:52 22° ESE 02:32:09 10° ENE
Meteor 2-15 Rocket 4.4 02:29:08 63° W 02:29:18 64° WNW 02:35:26 10° N
CZ-2C R/B 3.7 02:25:48 10° NNE 02:28:51 47° NE 02:28:51 47° NE
Cosmos 1553 Rocket 3.9 02:32:42 62° WSW 02:33:18 65° WNW 02:39:32 10° N
NOSS 3-2 (C) 4.0 02:27:03 10° NW 02:34:27 86° NE 02:42:56 10° SE
Meteor 2-2 Rocket 4.3 02:33:06 52° SSW 02:34:41 89° WNW 02:40:47 10° NNE
Cosmos 1417 Rocket 4.4 02:35:32 58° SW 02:36:41 71° W 02:43:04 10° N
Lacrosse 5 2.1 02:40:09 53° S 02:40:09 53° S 02:44:16 10° SE
USA 276 4.2 02:43:47 24° ESE 02:43:47 24° ESE 02:45:31 10° E
Cosmos 2082 Rocket 3.8 02:42:36 20° NW 02:42:59 21° NW 02:47:12 10° N
MSX 3.8 02:37:59 10° N 02:43:37 58° WNW 02:44:10 55° W
Cosmos 2333 Rocket 2.2 02:39:23 10° NNW 02:45:13 84° ENE 02:51:00 10° SSE
SL-27 R/B 4.3 02:53:54 24° NNW 02:53:54 24° NNW 02:55:42 10° N
Cosmos 2221 3.1 02:53:27 44° NW 02:53:27 44° NW 02:56:52 10° N
Cosmos 1805 Rocket 3.5 02:50:48 10° N 02:55:18 85° E 02:59:46 10° S
Cosmos 2315 Rocket 4.1 02:49:46 10° S 02:55:55 75° E 03:02:08 10° NNE
NOSS 2-2 (D) 4.4 02:56:55 31° NNW 02:56:55 31° NNW 03:00:21 10° NNE
Cosmos 1484 Rocket 4.2 02:53:26 10° NNE 02:56:54 36° E 03:00:05 12° SSE
Cosmos 2219 Rocket 2.1 02:54:27 10° NNW 03:00:09 88° WSW 03:05:51 10° SSE
CZ-2C R/B 2.1 02:55:41 10° NNE 03:00:28 83° WNW 03:02:02 42° SSW
Landsat 5 3.2 02:57:14 10° SSE 03:01:05 84° ENE 03:05:03 10° NNW
CZ-2D R/B 4.5 02:58:04 10° N 03:00:54 32° NW 03:00:54 32° NW
COSMO-SKYMED 1 4.4 03:01:54 10° SE 03:05:47 33° ENE 03:09:41 10° N
CZ-4B R/B 4.0 03:06:32 10° ESE 03:08:51 20° ENE 03:11:10 10° NNE
Sich 1 2.9 03:07:40 10° N 03:12:08 85° W 03:16:31 10° S
Cosmos 1606 2.6 03:12:56 57° SW 03:13:34 69° WNW 03:17:28 10° N
USA 238 DEB 4.0 03:07:38 10° NW 03:14:36 52° WSW 03:21:50 10° SSE
USA 238 3.9 03:07:44 10° NW 03:14:42 52° WSW 03:21:57 10° SSE
COSMOS 2428 2.6 03:10:46 10° NNW 03:16:31 79° WSW 03:22:13 10° SSE
ATLAS 3B R/B 3.5 03:11:52 10° NW 03:18:36 52° NE 03:25:36 10° ESE
Cosmos 1666 Rocket 3.8 03:14:42 10° N 03:19:05 72° E 03:23:28 10° SSE
ATLAS 5 CENTAUR R/B 2.7 03:19:17 15° S 03:22:10 38° ESE 03:26:17 10° NE
MOS 1 Rocket 4.1 03:18:28 10° SE 03:22:46 51° ENE 03:27:20 10° N
SeaSat 1 2.8 03:18:04 10° SE 03:22:57 65° NE 03:27:51 10° NNW
ARIANE 5 R/B 3.6 03:18:51 10° N 03:22:59 26° WNW 03:23:22 26° WNW
S3M 4.4 03:21:13 30° WSW 03:23:31 41° WNW 03:29:23 10° N
Cosmos 909 Rocket 4.3 03:18:00 15° SSW 03:23:35 71° ESE 03:29:51 10° NE
ADEOS 4.4 03:22:52 10° NNE 03:27:58 51° E 03:33:03 10° S
CZ-4C R/B 3.1 03:30:56 43° WSW 03:31:14 45° W 03:34:36 10° NNW
USA 267 3.5 03:25:17 10° ENE 03:31:41 59° NNW 03:35:57 22° W
FENGYUN 3A 3.6 03:27:42 10° NNE 03:33:10 79° WNW 03:38:36 10° SSW
Cosmos 1602 3.9 03:30:53 10° N 03:34:50 77° E 03:38:44 10° SSE
Meteor 1-25 Rocket 4.1 03:29:34 10° NNW 03:35:09 77° W 03:40:41 10° S
Cosmos 1709 Rocket 4.3 03:30:38 10° NNW 03:36:36 43° W 03:42:34 10° SSW
Cosmos 2322 4.1 03:31:38 10° NW 03:36:54 40° WSW 03:42:08 10° S
NOSS 0 Rocket 3.9 03:32:06 10° NNW 03:38:18 88° WSW 03:44:31 10° SSE
Cosmos 2184 Rocket 4.1 03:32:44 10° N 03:39:06 85° E 03:45:30 10° S
Meteor 1-4 Rocket 4.4 03:42:48 17° NW 03:42:48 17° NW 03:44:31 10° NNW
H-2A R/B 1.9 03:38:04 10° S 03:42:14 59° WSW 03:46:21 10° NNW
Cosmos 1151 Rocket 3.2 03:39:12 10° S 03:43:30 75° E 03:47:48 10° NNE
Cosmos 1633 Rocket 3.0 03:45:51 10° NNW 03:50:15 68° W 03:54:36 10° S
COSMOS 2487 3.3 03:50:12 26° W 03:50:58 29° WNW 03:54:02 10° N
Cosmos 2344 3.8 03:46:42 19° WSW 03:52:14 59° NW 04:00:34 10° NE
Geosat 3.9 03:47:32 10° NNE 03:52:35 77° WNW 03:57:35 10° SW
SKYMED 2 3.5 03:49:21 10° SSE 03:53:41 90° SSW 03:58:04 10° NNW
CENTAUR R/B 3.6 03:46:42 10° NW 03:54:15 42° WSW 04:02:23 10° S
Cosmos 2251 Rocket 4.1 03:53:53 17° WSW 03:57:36 41° WNW 04:02:43 10° NNE
H-2A R/B 4.2 03:54:25 10° NNE 03:58:08 41° E 04:01:49 10° S
Meteor 1-20 Rocket 4.4 03:52:41 10° NNW 03:58:11 50° W 04:03:43 10° SSW
Cosmos 614 Rocket 4.1 03:54:14 12° SW 03:59:02 54° WNW 04:04:10 10° NNE
IDEFIX/ARIANE 42P 4.5 03:57:24 10° NNW 03:59:19 12° NW 04:00:30 11° WNW
Cosmos 1242 Rocket 4.4 03:58:23 10° SSE 04:01:33 34° E 04:04:45 10° NNE
ALOS 2.6 03:57:09 10° N 04:01:35 43° WNW 04:06:00 10° SW
CZ-2C R/B 4.3 03:56:40 10° SE 04:01:50 39° ENE 04:06:59 10° N
ISS -3.0 04:00:40 22° W 04:02:18 36° SSW 04:05:25 10° SE
Meteor 1-14 Rocket 4.3 03:56:54 10° NNW 04:02:36 88° W 04:08:23 10° S
Cosmos 1933 3.6 03:58:53 10° SSW 04:02:45 44° WNW 04:06:40 10° N
CZ-2C R/B 4.4 04:01:13 10° NNW 04:03:36 16° WNW 04:04:14 15° WNW
Cosmos 1812 4.0 04:02:00 10° SSE 04:05:40 45° E 04:09:22 10° NNE
Cosmos 2237 Rocket 2.2 04:02:11 10° NNW 04:07:54 82° WSW 04:13:34 10° SSE
Meteor 1-31 Rocket 2.7 04:05:39 10° N 04:09:31 70° WNW 04:13:20 10° SSW
CSL-04 DEB 4.3 04:06:40 10° S 04:10:35 61° WSW 04:14:29 10° NNW
RESURS DK-1 4.1 04:09:10 10° S 04:12:55 35° ESE 04:16:42 10° NE
Cosmos 407 Rocket 3.5 04:08:53 10° SSW 04:14:01 67° WNW 04:19:10 10° NNE
CZ-4C R/B 2.2 04:10:28 10° SW 04:15:33 75° NW 04:21:47 10° NE
USA 276 2.1 04:16:02 15° W 04:18:36 83° S 04:21:49 10° E
Nadezhda 1 Rocket 4.0 04:15:06 10° S 04:21:15 86° W 04:27:34 10° N
Lacrosse 5 3.5 04:19:24 12° W 04:21:24 15° WSW 04:24:08 10° SSW
Cosmos 2341 Rocket 4.5 04:17:03 10° N 04:23:16 68° ENE 04:29:27 10° SSE
NOSS 3-4 (A) 3.4 04:17:43 10° SW 04:23:38 77° NW 04:30:06 10° NE
NOSS 3-4 (C) 3.4 04:17:49 10° SW 04:23:44 78° NW 04:30:13 10° NE
PSLV R/B 4.0 04:20:42 10° SSE 04:24:52 85° ENE 04:29:03 10° NNW
Cosmos 1190 Rocket 4.0 04:20:24 10° SSW 04:25:41 69° WNW 04:31:01 10° NNE
Cosmos 1328 Rocket 3.7 04:21:31 10° SSW 04:25:43 50° WNW 04:29:57 10° N
Cosmos 1515 Rocket 3.5 04:23:28 10° SSW 04:27:49 81° W 04:32:14 10° N
SJ-12 4.0 04:24:04 10° N 04:28:03 54° WNW 04:32:00 10° SSW
Cosmos 2227 Rocket 3.1 04:23:09 10° S 04:28:38 53° ESE 04:34:09 10° NE
Cosmos 2333 Rocket 3.5 04:24:53 10° WNW 04:28:46 19° W 04:32:38 10° SW
Meteor PRIRODA 3.7 04:27:02 10° NNE 04:30:47 88° WNW 04:34:31 10° SSW
SL-16 R/B 2.8 04:25:17 10° NNW 04:30:58 62° NE 04:36:37 10° SE
Cosmos 1484 Rocket 4.0 04:28:15 10° NNW 04:31:08 22° WNW 04:34:00 10° WSW
Cosmos 1666 2.8 04:28:33 10° N 04:32:24 82° E 04:36:14 10° SSE
Cosmos 676 Rocket 4.1 04:27:32 10° SSW 04:32:52 88° ESE 04:38:11 10° NNE
Cosmos 1470 Rocket 3.9 04:30:48 10° NNW 04:34:54 41° W 04:38:57 10° SSW
CZ-4B R/B 3.1 04:30:33 10° NNE 04:35:06 79° WNW 04:39:36 10° SSW
Cosmos 1437 Rocket 3.4 04:31:43 10° SW 04:35:30 36° WNW 04:39:13 10° N
SAR-Lupe-1 4.1 04:34:19 10° SSE 04:37:53 89° E 04:41:31 10° NNW
CZ-2C R/B 4.1 04:35:28 10° NNW 04:37:56 14° NW 04:40:22 10° W
Cosmos 1689 Rocket 1.9 04:35:19 10° SSE 04:38:08 90° W 04:41:00 10° NNW
Cosmos 921 Rocket 4.5 04:33:59 10° N 04:38:16 43° ENE 04:42:35 10° SE
ATLAS 2AS CENTAUR R/B 3.1 04:31:05 10° SW 04:39:03 87° NW 04:46:51 10° NE
deb Chang Zheng 4 3.5 04:36:25 10° NNE 04:40:44 81° WNW 04:45:02 10° SSW
Envisat 3.2 04:35:48 10° NNE 04:40:55 82° ESE 04:46:00 10° SSW
CZ-4B R/B 2.2 04:38:19 10° SSW 04:40:55 25° W 04:43:32 10° NW
COSMO-SKYMED 1 3.3 04:38:04 10° SSW 04:41:57 31° W 04:45:51 10° NNW
Cosmos 2219 Rocket 3.6 04:39:54 10° WNW 04:43:18 16° W 04:46:41 10° SW
Cosmos 2297 Rocket 2.4 04:38:07 10° SSW 04:43:46 83° ESE 04:49:27 10° NNE
Cosmos 1782 3.6 04:41:55 10° SW 04:45:25 29° WNW 04:48:57 10° N
